Wind_Speed
37 32 31 33 37 39 42 43 43 44 44 44 43 43 42 40 38 36 36 36 34 38 39 36 36 39 39 40 41 40 36 37 33 38 32 39 43 48 55 68 70 76 73
40 41 40 41 42 39 38 39 38 40 41 41 40 40 40 41 40 38 36 36 35 39 40 37 39 38 37 40 40 36 36 33 29 25 29 42 45 49 60 68 72 76 76
46 46 47 47 45 46 45 45 46 43 42 41 41 41 41 42 37 33 35 39 39 40 40 39 36 38 39 41 38 33 34 32 29 28 28 42 45 49 62 68 76 75 81
45 46 47 48 48 48 46 46 47 46 44 44 43 41 39 33 34 37 41 40 42 43 41 39 40 37 40 41 36 29 31 29 29 32 30 40 45 53 59 65 73 74 86
45 50 49 49 53 55 53 50 49 50 46 43 42 43 44 45 48 48 46 45 45 46 44 41 38 39 40 37 29 30 28 26 31 31 35 40 43 51 59 62 65 72 82
44 44 44 46 45 43 43 42 42 43 46 52 52 53 55 56 56 56 54 53 51 51 50 47 41 40 42 35 27 27 23 26 28 28 33 35 40 49 53 58 59 66 67
43 46 45 44 48 46 46 51 52 53 52 55 56 60 64 63 62 64 62 60 57 55 52 48 44 37 35 27 26 25 22 23 28 23 25 26 35 46 49 52 51 60 60
46 50 48 47 51 53 55 57 59 58 57 58 58 60 64 67 66 64 62 58 55 52 52 48 47 45 42 29 27 26 25 20 20 14 23 22 28 38 44 42 44 53 56
55 59 54 56 58 56 58 62 65 68 68 66 64 64 66 66 66 66 65 64 61 58 55 56 53 48 43 40 33 34 27 17 9 14 19 17 26 30 35 34 37 43 49
65 66 66 69 72 71 73 73 73 78 78 73 69 68 72 72 73 73 72 70 68 65 62 62 58 56 47 45 37 40 33 26 15 14 17 16 22 25 28 30 29 33 38
68 71 74 74 69 70 69 70 74 76 77 74 74 75 76 73 74 73 73 71 69 67 66 64 60 55 55 50 48 41 36 31 26 22 19 17 22 22 22 24 22 24 27
66 68 69 71 75 78 81 83 86 87 86 84 85 85 85 86 82 78 76 75 72 68 68 65 59 50 55 53 52 48 44 36 38 34 25 21 18 16 15 18 15 16 17
71 73 75 76 77 78 78 80 82 88 91 95 94 90 92 94 92 91 84 84 80 78 77 73 72 64 54 49 54 52 50 44 39 34 31 28 21 18 15 15 10 11 8
76 78 80 81 83 85 87 87 87 87 88 88 87 87 88 94 100 100 96 89 89 88 84 81 78 75 69 64 61 56 57 52 47 43 34 32 30 23 17 18 14 5 4
84 86 88 90 92 91 91 91 92 92 93 94 94 93 92 90 90 86 85 86 86 90 95 92 88 83 81 76 73 67 60 60 51 47 47 37 36 31 26 24 19 14 8
89 92 93 92 91 90 91 91 93 93 95 95 93 93 93 93 93 92 90 87 85 83 82 81 77 74 73 73 72 66 60 59 55 51 51 46 41 38 35 34 28 23 17
91 91 91 92 91 92 93 93 92 94 96 97 99 98 97 95 96 92 91 88 87 87 86 84 81 74 70 66 63 62 60 57 53 51 53 55 48 44 43 43 38 34 27
89 91 92 93 95 97 98 100 101 102 101 102 103 105 106 105 104 104 98 94 92 89 88 88 86 82 73 69 65 61 59 56 56 54 56 58 56 51 49 51 47 43 37
93 94 95 94 94 95 96 97 98 96 95 95 96 98 99 100 103 102 101 101 102 101 96 92 89 88 81 73 70 62 58 57 58 55 56 59 60 62 56 58 56 50 47
91 92 93 92 91 92 91 90 86 82 79 78 77 79 82 82 83 83 86 91 95 100 103 102 97 93 92 82 77 70 60 57 58 55 58 60 61 65 64 62 63 58 56
89 89 86 82 81 80 79 75 71 67 65 62 61 60 62 61 64 68 67 70 75 81 86 94 99 100 98 93 83 77 68 58 58 55 55 58 61 64 69 68 68 67 64
78 77 76 75 73 70 65 60 57 54 53 52 51 50 49 50 50 53 56 58 60 63 66 72 78 86 96 101 91 81 75 66 61 57 56 57 61 64 68 73 71 71 70
72 71 70 68 62 57 50 49 48 49 48 47 45 43 40 40 41 44 46 49 51 53 54 59 63 69 78 95 100 88 78 70 68 61 58 58 61 62 63 68 72 74 72
66 65 61 55 52 47 46 46 45 44 41 41 39 35 35 35 36 38 38 41 42 42 45 50 53 59 67 78 93 92 84 79 70 67 64 64 61 65 64 64 67 73 78
60 53 51 48 47 43 40 41 42 41 39 39 38 35 30 31 32 34 34 35 31 33 38 42 45 53 57 65 79 88 88 82 78 73 71 68 68 69 70 67 65 69 75
46 44 43 42 41 40 39 37 37 37 37 38 33 28 25 25 26 28 28 30 28 29 32 34 38 42 46 52 63 79 88 84 80 74 78 78 77 74 72 72 72 71 69
Wind_Direction
249 260 263 259 258 260 262 265 267 269 271 274 278 279 281 279 278 281 277 280 287 292 299 302 308 308 306 307 313 319 325 330 326 321 318 322 326 332 337 337 340 336 334
255 252 251 256 258 263 268 270 273 273 274 274 276 277 280 279 277 274 272 279 286 293 294 295 301 302 301 302 309 315 328 317 319 329 323 325 330 336 340 339 341 337 336
252 254 256 260 264 265 268 269 270 270 269 271 271 272 277 275 268 266 273 282 283 285 286 287 297 296 297 297 307 322 310 309 311 327 327 331 330 339 338 342 339 338 339
254 257 257 258 260 260 262 264 267 265 263 265 266 269 271 259 263 271 282 283 284 281 282 286 294 294 298 299 306 304 304 304 304 323 320 331 328 336 337 342 342 344 342
267 265 264 268 268 267 267 266 266 262 265 264 264 264 261 258 264 273 276 278 281 280 279 284 287 289 296 299 298 292 297 300 306 313 323 325 332 331 340 342 344 350 350
277 271 272 270 267 271 270 266 267 270 265 260 259 256 254 259 265 271 276 276 275 277 279 280 279 285 287 293 282 283 290 299 305 318 320 323 327 328 338 344 348 355 359
277 273 268 266 268 263 265 261 257 256 258 261 264 265 267 269 271 273 275 275 276 275 273 272 274 279 280 284 269 285 288 299 300 317 322 326 324 330 340 346 354 1 6
267 267 266 265 266 264 264 263 261 259 264 267 269 270 269 269 268 269 271 273 273 271 271 269 272 277 272 282 260 269 278 285 303 322 313 321 323 331 341 350 359 7 11
257 261 261 257 261 260 261 263 263 262 264 268 267 266 265 265 267 268 269 269 271 271 272 275 276 279 273 269 260 258 276 261 288 293 299 313 321 330 338 356 1 14 12
252 257 259 258 263 263 267 267 267 265 266 266 267 268 263 263 265 263 264 264 267 267 268 269 270 274 271 266 271 266 272 252 260 276 289 298 311 327 340 358 2 17 15
259 260 261 263 261 263 263 268 270 270 271 271 271 273 273 270 271 269 269 267 266 269 268 270 266 262 265 263 260 268 271 253 265 272 272 289 296 302 329 347 3 9 23
269 269 268 267 267 266 263 261 266 268 269 267 266 264 267 271 269 266 268 269 271 274 276 275 274 264 256 256 258 261 265 263 258 262 264 268 279 280 313 323 1 2 22
271 272 273 273 273 272 270 268 268 268 267 265 265 267 266 269 268 270 271 271 270 265 267 268 270 273 268 264 254 259 257 259 256 254 247 253 257 256 277 299 324 348 22
274 274 274 273 274 274 274 273 272 271 270 269 267 267 267 267 265 265 266 267 267 270 269 269 269 268 268 266 264 262 257 250 251 251 242 240 246 242 247 270 276 308 290
273 274 275 276 276 275 275 274 273 272 271 270 269 268 267 265 265 266 266 266 265 264 266 266 267 267 267 266 264 263 258 247 244 247 248 234 235 234 228 239 254 254 231
277 277 277 277 277 277 277 276 276 276 276 275 273 272 270 267 265 264 263 262 262 262 262 264 263 262 261 261 262 258 253 246 238 239 242 238 228 227 220 232 237 242 237
278 278 277 277 277 276 276 275 274 274 274 273 273 272 270 269 269 266 263 261 259 258 258 258 258 257 257 255 254 252 250 244 238 233 235 236 232 224 224 224 227 234 232
278 278 277 278 278 278 278 278 277 276 274 272 271 270 270 267 265 264 263 262 260 257 255 254 255 255 252 251 249 246 244 241 239 234 233 233 230 221 223 219 223 230 231
280 280 281 281 281 281 281 280 279 278 277 275 272 269 266 264 263 262 260 257 255 254 253 250 248 250 249 245 245 242 240 236 235 236 232 231 226 225 221 222 218 224 230
281 282 282 283 283 283 283 283 284 282 280 278 275 271 269 266 265 263 259 257 253 251 250 247 245 243 245 241 239 237 233 235 231 231 232 229 227 223 223 220 219 221 225
284 284 286 286 287 288 288 289 288 287 285 282 278 274 271 267 263 261 259 257 254 251 250 248 245 240 238 240 235 234 229 226 229 223 227 228 226 225 222 221 219 222 221
287 288 289 290 291 291 291 291 291 291 291 288 284 279 273 269 264 260 257 255 254 252 249 246 243 239 235 235 233 229 227 223 223 221 221 225 226 225 222 222 222 220 220
288 291 291 291 289 288 287 291 292 293 294 294 290 285 282 275 266 260 257 255 252 250 247 244 242 236 232 228 229 225 222 219 220 218 218 222 225 228 227 224 223 222 219
291 292 289 287 284 283 285 289 291 296 300 297 296 295 280 275 268 261 257 254 251 249 246 242 237 234 229 226 224 219 218 218 216 216 220 223 225 227 228 228 225 224 224
293 288 287 286 284 286 285 285 289 295 298 299 302 300 285 273 269 265 263 260 254 246 242 238 233 229 226 222 219 215 215 215 217 217 218 220 223 227 228 228 228 227 227
284 287 289 287 282 283 284 286 289 294 299 302 305 301 285 275 267 264 259 258 253 245 239 232 227 223 219 216 215 213 212 214 215 218 220 222 226 228 230 232 231 232 231
Height
10968 10968 10969 10969 10970 10971 10971 10971 10972 10972 10971 10970 10969 10968 10967 10967 10965 10962 10959 10956 10957 10957 10955 10953 10950 10944 10941 10936 10933 10929 10925 10919 10913 10907 10899 10893 10883 10875 10862 10846 10830 10815 10795
10958 10959 10959 10959 10960 10960 10961 10961 10962 10962 10962 10961 10960 10959 10958 10957 10956 10953 10950 10947 10948 10949 10948 10948 10946 10941 10937 10932 10929 10926 10921 10914 10907 10900 10895 10889 10878 10867 10855 10838 10821 10802 10782
10949 10950 10950 10950 10951 10951 10951 10951 10950 10950 10951 10951 10950 10949 10948 10947 10945 10943 10940 10938 10939 10940 10940 10939 10939 10936 10932 10927 10924 10921 10915 10910 10903 10897 10891 10885 10874 10862 10850 10833 10813 10793 10769
10939 10940 10941 10939 10939 10940 10941 10941 10939 10939 10937 10938 10939 10939 10938 10936 10935 10933 10931 10929 10930 10931 10932 10931 10931 10928 10925 10922 10919 10915 10910 10906 10901 10895 10889 10882 10872 10862 10847 10828 10809 10787 10760
10932 10931 10929 10930 10929 10929 10927 10929 10928 10927 10927 10925 10926 10927 10926 10925 10924 10923 10921 10919 10920 10921 10922 10923 10923 10922 10917 10915 10912 10907 10905 10902 10897 10892 10886 10878 10870 10858 10845 10828 10811 10786 10761
10918 10918 10920 10918 10917 10916 10912 10912 10915 10915 10914 10913 10911 10911 10911 10911 10910 10910 10909 10908 10909 10911 10912 10913 10912 10912 10910 10909 10905 10901 10899 10897 10892 10888 10883 10876 10869 10860 10846 10830 10813 10790 10769
10912 10909 10905 10904 10905 10903 10901 10902 10901 10900 10897 10897 10897 10899 10899 10898 10896 10896 10896 10896 10898 10900 10902 10902 10902 10903 10902 10903 10899 10897 10895 10892 10887 10884 10879 10873 10868 10861 10848 10834 10818 10799 10779
10899 10898 10895 10891 10889 10888 10886 10886 10885 10883 10881 10883 10884 10885 10885 10883 10883 10882 10882 10883 10884 10887 10890 10891 10892 10894 10891 10893 10892 10891 10888 10886 10883 10880 10875 10872 10867 10861 10851 10837 10824 10808 10793
10877 10877 10876 10874 10872 10872 10871 10870 10869 10868 10868 10868 10868 10867 10868 10867 10867 10867 10867 10868 10870 10874 10875 10875 10877 10881 10883 10880 10884 10883 10883 10881 10878 10875 10872 10869 10866 10862 10853 10842 10832 10818 10809
10859 10858 10858 10857 10856 10854 10852 10850 10849 10850 10849 10849 10848 10848 10848 10850 10848 10848 10849 10852 10854 10858 10861 10861 10864 10866 10870 10869 10871 10874 10876 10874 10873 10871 10868 10867 10864 10862 10856 10846 10838 10829 10821
10842 10840 10839 10838 10836 10833 10831 10828 10827 10827 10826 10826 10826 10826 10826 10829 10830 10831 10831 10833 10839 10841 10844 10844 10849 10853 10853 10856 10857 10860 10864 10867 10867 10866 10865 10863 10862 10860 10858 10850 10842 10837 10831
10822 10820 10819 10817 10814 10813 10811 10809 10807 10806 10805 10805 10804 10805 10805 10805 10807 10811 10812 10813 10818 10821 10823 10826 10829 10836 10838 10839 10841 10846 10850 10856 10858 10860 10859 10858 10857 10857 10856 10852 10846 10841 10837
10800 10797 10794 10792 10790 10788 10788 10787 10784 10782 10781 10781 10779 10781 10781 10782 10783 10786 10790 10790 10794 10800 10803 10807 10811 10815 10819 10822 10825 10828 10834 10840 10846 10850 10851 10851 10852 10854 10854 10851 10848 10844 10841
10776 10772 10771 10770 10767 10764 10761 10759 10757 10755 10753 10752 10753 10753 10753 10754 10756 10760 10765 10769 10767 10769 10778 10783 10788 10794 10800 10804 10807 10811 10816 10823 10830 10835 10840 10843 10843 10847 10849 10849 10847 10844 10843
10753 10749 10747 10742 10739 10737 10734 10731 10728 10726 10723 10723 10724 10724 10726 10727 10726 10733 10734 10737 10744 10748 10747 10756 10763 10768 10774 10780 10785 10792 10797 10804 10813 10820 10825 10832 10834 10838 10841 10842 10842 10842 10841
10728 10725 10719 10715 10711 10708 10705 10703 10699 10697 10692 10689 10690 10690 10691 10693 10696 10701 10705 10710 10716 10719 10723 10726 10735 10742 10750 10755 10762 10768 10776 10785 10794 10801 10808 10816 10822 10826 10831 10833 10835 10836 10838
10703 10697 10692 10688 10685 10681 10677 10673 10674 10669 10664 10661 10656 10654 10656 10659 10657 10665 10669 10676 10684 10690 10695 10699 10706 10716 10724 10732 10740 10747 10756 10764 10773 10784 10790 10796 10805 10813 10818 10822 10825 10827 10830
10673 10667 10663 10660 10655 10650 10646 10640 10635 10632 10631 10629 10625 10621 10618 10621 10624 10625 10635 10643 10647 10655 10663 10671 10678 10687 10700 10710 10718 10727 10736 10744 10753 10764 10772 10778 10788 10797 10803 10808 10812 10815 10822
10645 10638 10634 10630 10624 10618 10612 10604 10597 10595 10592 10588 10583 10579 10577 10577 10578 10586 10594 10602 10608 10615 10625 10637 10647 10656 10670 10686 10695 10707 10717 10727 10734 10745 10753 10760 10769 10778 10786 10793 10798 10803 10807
10616 10610 10605 10601 10595 10586 10579 10572 10566 10560 10554 10549 10545 10541 10537 10542 10544 10548 10553 10558 10566 10573 10582 10597 10613 10627 10635 10655 10669 10684 10697 10706 10716 10725 10733 10742 10750 10758 10768 10776 10784 10789 10793
10587 10580 10575 10570 10563 10556 10548 10543 10537 10532 10526 10520 10516 10513 10510 10513 10515 10514 10521 10527 10531 10537 10544 10556 10572 10591 10605 10620 10642 10659 10675 10688 10697 10707 10714 10723 10731 10739 10748 10758 10766 10772 10778
10560 10555 10550 10543 10537 10531 10526 10521 10515 10510 10504 10499 10495 10491 10490 10489 10491 10492 10496 10500 10505 10510 10517 10524 10534 10550 10571 10588 10612 10633 10651 10667 10678 10689 10698 10705 10713 10720 10729 10738 10746 10754 10763
10540 10535 10528 10522 10517 10513 10509 10506 10501 10495 10489 10483 10478 10475 10473 10471 10471 10472 10474 10480 10484 10487 10493 10500 10510 10522 10536 10554 10576 10606 10627 10645 10657 10671 10680 10688 10696 10702 10711 10719 10727 10735 10744
10522 10516 10510 10505 10501 10498 10494 10491 10486 10482 10476 10469 10465 10462 10460 10458 10457 10456 10458 10461 10465 10471 10476 10482 10490 10499 10511 10527 10548 10579 10601 10620 10637 10652 10662 10672 10679 10684 10692 10699 10708 10716 10724
10503 10497 10493 10491 10486 10484 10481 10477 10473 10470 10465 10459 10454 10450 10447 10445 10445 10445 10447 10449 10454 10457 10461 10466 10473 10480 10494 10510 10528 10555 10581 10601 10618 10632 10643 10651 10657 10664 10672 10681 10689 10697 10704
10488 10485 10480 10477 10473 10470 10467 10464 10461 10459 10454 10450 10446 10442 10438 10436 10435 10436 10438 10439 10442 10445 10449 10455 10461 10471 10484 10501 10522 10544 10567 10585 10601 10612 10620 10630 10637 10648 10654 10662 10670 10678 10686